When you browse on this site, cookies collect data to enhance your experience and personalize the content and advertising you see.
Visit our Privacy Policy to learn more. By continuing to use the site, you agree to this use of cookies and data.
  • în România
  • Lista ţărilor
  • Pe 7 zile
  • Temperatura apei
  • Hartă satelitară
  • Meteo pe hartă
  • Widget-uri
  • user-avatar
    Intrare

    Meteo pe oră la Kolesnye Gorki

    Astăzi, 20 Ianuarie, Duminică

    Timp Temperatura Precipitaţii Vânt Presiune Umiditate
    00:00 -10°C° 0 mm 3 m/s 743 mmHg 92%
    01:00 -9°C° 0 mm 3 m/s 743 mmHg 90%
    02:00 -8°C° 0 mm 4 m/s 743 mmHg 88%
    03:00 -8°C° 0 mm 4 m/s 742 mmHg 88%
    04:00 -8°C° 0 mm 4 m/s 742 mmHg 88%
    05:00 -8°C° 0 mm 5 m/s 741 mmHg 88%
    06:00 -8°C° 0.2 mm 5 m/s 741 mmHg 87%
    07:00 -8°C° 0.2 mm 5 m/s 740 mmHg 87%
    08:00 -8°C° 0.2 mm 6 m/s 740 mmHg 86%
    09:00 -8°C° 0.1 mm 6 m/s 739 mmHg 85%
    10:00 -6°C° 0.1 mm 6 m/s 739 mmHg 84%
    11:00 -5°C° 0.1 mm 6 m/s 739 mmHg 83%
    12:00 -5°C° 0.2 mm 6 m/s 739 mmHg 83%
    13:00 -5°C° 0.2 mm 5 m/s 738 mmHg 83%
    14:00 -5°C° 0.2 mm 5 m/s 738 mmHg 83%
    15:00 -6°C° 0 mm 5 m/s 738 mmHg 83%
    16:00 -7°C° 0 mm 5 m/s 738 mmHg 82%
    17:00 -8°C° 0 mm 4 m/s 738 mmHg 81%
    18:00 -8°C° 0 mm 5 m/s 738 mmHg 82%
    19:00 -8°C° 0 mm 5 m/s 738 mmHg 84%
    20:00 -10°C° 0 mm 5 m/s 738 mmHg 85%
    21:00 -10°C° 0 mm 5 m/s 739 mmHg 85%
    22:00 -9°C° 0 mm 4 m/s 739 mmHg 86%
    23:00 -9°C° 0 mm 4 m/s 740 mmHg 87%

    Mâine, 21 Ianuarie, Luni

    Timp Temperatura Precipitaţii Vânt Presiune Umiditate
    00:00 -9°C° 0 mm 3 m/s 740 mmHg 87%
    01:00 -9°C° 0 mm 3 m/s 740 mmHg 88%
    02:00 -10°C° 0 mm 3 m/s 741 mmHg 89%
    03:00 -12°C° 0 mm 2 m/s 741 mmHg 90%
    04:00 -14°C° 0 mm 2 m/s 741 mmHg 92%
    05:00 -16°C° 0 mm 2 m/s 741 mmHg 93%
    06:00 -16°C° 0 mm 2 m/s 741 mmHg 94%
    07:00 -17°C° 0 mm 2 m/s 741 mmHg 94%
    08:00 -17°C° 0 mm 2 m/s 742 mmHg 94%
    09:00 -16°C° 0 mm 2 m/s 742 mmHg 93%
    10:00 -15°C° 0 mm 2 m/s 742 mmHg 92%
    11:00 -15°C° 0 mm 3 m/s 742 mmHg 90%
    12:00 -14°C° 0.1 mm 3 m/s 743 mmHg 89%
    13:00 -14°C° 0.1 mm 3 m/s 743 mmHg 87%
    14:00 -14°C° 0.1 mm 3 m/s 743 mmHg 85%
    15:00 -15°C° 0 mm 3 m/s 743 mmHg 87%
    16:00 -16°C° 0 mm 3 m/s 743 mmHg 90%
    17:00 -17°C° 0 mm 2 m/s 744 mmHg 92%
    18:00 -18°C° 0 mm 2 m/s 744 mmHg 93%
    19:00 -18°C° 0 mm 2 m/s 744 mmHg 94%
    20:00 -19°C° 0 mm 2 m/s 745 mmHg 95%
    21:00 -20°C° 0 mm 2 m/s 745 mmHg 96%
    22:00 -21°C° 0 mm 2 m/s 745 mmHg 97%
    23:00 -21°C° 0 mm 2 m/s 746 mmHg 97%

    Poimâine, 22 Ianuarie, Marţi

    Timp Temperatura Precipitaţii Vânt Presiune Umiditate
    00:00 -23°C° 0 mm 2 m/s 746 mmHg 97%
    01:00 -23°C° 0 mm 2 m/s 746 mmHg 98%
    02:00 -23°C° 0 mm 2 m/s 746 mmHg 98%
    03:00 -23°C° 0 mm 2 m/s 747 mmHg 98%
    04:00 -23°C° 0 mm 2 m/s 747 mmHg 98%
    05:00 -24°C° 0 mm 2 m/s 747 mmHg 98%
    06:00 -24°C° 0 mm 2 m/s 747 mmHg 98%
    07:00 -24°C° 0 mm 2 m/s 748 mmHg 98%
    08:00 -24°C° 0 mm 2 m/s 748 mmHg 98%
    09:00 -20°C° 0 mm 1 m/s 748 mmHg 97%
    10:00 -18°C° 0 mm 1 m/s 748 mmHg 96%
    11:00 -17°C° 0 mm 1 m/s 748 mmHg 94%
    12:00 -16°C° 0 mm 1 m/s 748 mmHg 94%
    13:00 -16°C° 0 mm 1 m/s 748 mmHg 95%
    14:00 -15°C° 0 mm 1 m/s 748 mmHg 95%
    15:00 -16°C° 0 mm 1 m/s 748 mmHg 96%
    16:00 -18°C° 0 mm 1 m/s 748 mmHg 97%
    17:00 -19°C° 0 mm 1 m/s 748 mmHg 98%
    18:00 -19°C° 0 mm 1 m/s 748 mmHg 98%
    19:00 -20°C° 0 mm 1 m/s 748 mmHg 99%
    20:00 -20°C° 0 mm 1 m/s 748 mmHg 99%
    21:00 -20°C° 0 mm 1 m/s 748 mmHg 99%
    22:00 -20°C° 0 mm 1 m/s 748 mmHg 99%
    23:00 -20°C° 0 mm 1 m/s 748 mmHg 99%

    23 Ianuarie, Miercuri

    Timp Temperatura Precipitaţii Vânt Presiune Umiditate
    00:00 -20°C° 0 mm 1 m/s 748 mmHg 99%
    01:00 -20°C° 0 mm 1 m/s 749 mmHg 99%
    02:00 -20°C° 0 mm 1 m/s 749 mmHg 99%
    03:00 -20°C° 0 mm 1 m/s 748 mmHg 99%
    04:00 -21°C° 0 mm 2 m/s 748 mmHg 99%
    05:00 -21°C° 0 mm 2 m/s 748 mmHg 99%
    06:00 -20°C° 0 mm 2 m/s 748 mmHg 99%
    07:00 -20°C° 0 mm 2 m/s 748 mmHg 98%
    08:00 -19°C° 0 mm 2 m/s 748 mmHg 98%
    09:00 -17°C° 0 mm 2 m/s 748 mmHg 97%
    10:00 -16°C° 0 mm 3 m/s 748 mmHg 95%
    11:00 -15°C° 0 mm 3 m/s 748 mmHg 94%
    12:00 -13°C° 0 mm 3 m/s 748 mmHg 93%
    13:00 -12°C° 0 mm 3 m/s 748 mmHg 93%
    14:00 -10°C° 0 mm 3 m/s 748 mmHg 92%
    15:00 -10°C° 0 mm 3 m/s 748 mmHg 92%
    16:00 -10°C° 0 mm 3 m/s 748 mmHg 92%
    17:00 -10°C° 0 mm 3 m/s 748 mmHg 92%
    18:00 -13°C° 0 mm 3 m/s 748 mmHg 92%
    19:00 -14°C° 0 mm 3 m/s 748 mmHg 92%
    20:00 -16°C° 0 mm 3 m/s 748 mmHg 93%
    21:00 -16°C° 0 mm 3 m/s 748 mmHg 93%
    22:00 -15°C° 0 mm 2 m/s 748 mmHg 93%
    23:00 -16°C° 0 mm 2 m/s 748 mmHg 93%

    24 Ianuarie, Joi

    Timp Temperatura Precipitaţii Vânt Presiune Umiditate
    00:00 -15°C° 0 mm 2 m/s 749 mmHg 92%
    01:00 -15°C° 0 mm 2 m/s 749 mmHg 92%
    02:00 -14°C° 0 mm 2 m/s 749 mmHg 91%
    03:00 -14°C° 0 mm 2 m/s 749 mmHg 91%
    04:00 -12°C° 0 mm 1 m/s 749 mmHg 92%
    05:00 -12°C° 0 mm 1 m/s 748 mmHg 92%
    06:00 -13°C° 0 mm 1 m/s 749 mmHg 92%
    07:00 -13°C° 0 mm 1 m/s 749 mmHg 92%
    08:00 -13°C° 0 mm 1 m/s 749 mmHg 92%
    09:00 -13°C° 0 mm 1 m/s 749 mmHg 91%
    10:00 -12°C° 0 mm 0 m/s 749 mmHg 90%
    11:00 -11°C° 0 mm 0 m/s 750 mmHg 89%
    12:00 -11°C° 0 mm 1 m/s 750 mmHg 90%
    13:00 -11°C° 0 mm 1 m/s 750 mmHg 92%
    14:00 -10°C° 0 mm 1 m/s 750 mmHg 93%
    15:00 -13°C° 0 mm 2 m/s 750 mmHg 94%
    16:00 -13°C° 0 mm 2 m/s 750 mmHg 95%
    17:00 -14°C° 0 mm 2 m/s 750 mmHg 96%
    18:00 -14°C° 0 mm 2 m/s 751 mmHg 95%
    19:00 -15°C° 0 mm 3 m/s 751 mmHg 95%
    20:00 -15°C° 0 mm 3 m/s 751 mmHg 94%
    21:00 -15°C° 0 mm 3 m/s 751 mmHg 94%
    22:00 -16°C° 0 mm 3 m/s 751 mmHg 94%
    23:00 -17°C° 0 mm 3 m/s 751 mmHg 94%

    25 Ianuarie, Vineri

    Timp Temperatura Precipitaţii Vânt Presiune Umiditate
    00:00 -17°C° 0 mm 3 m/s 751 mmHg 93%
    01:00 -18°C° 0 mm 3 m/s 751 mmHg 93%
    02:00 -18°C° 0 mm 3 m/s 751 mmHg 93%
    03:00 -19°C° 0 mm 3 m/s 751 mmHg 92%
    04:00 -19°C° 0 mm 3 m/s 751 mmHg 92%
    05:00 -21°C° 0 mm 3 m/s 751 mmHg 91%
    06:00 -21°C° 0 mm 3 m/s 751 mmHg 90%
    07:00 -21°C° 0 mm 3 m/s 751 mmHg 90%
    08:00 -21°C° 0 mm 3 m/s 751 mmHg 90%
    09:00 -21°C° 0 mm 3 m/s 751 mmHg 89%
    10:00 -20°C° 0 mm 4 m/s 751 mmHg 89%
    11:00 -20°C° 0 mm 4 m/s 751 mmHg 89%
    12:00 -19°C° 0 mm 4 m/s 751 mmHg 89%
    13:00 -19°C° 0 mm 4 m/s 751 mmHg 89%
    14:00 -19°C° 0 mm 4 m/s 751 mmHg 89%
    15:00 -19°C° 0 mm 4 m/s 750 mmHg 89%
    16:00 -19°C° 0 mm 4 m/s 750 mmHg 89%
    17:00 -20°C° 0 mm 4 m/s 750 mmHg 89%
    18:00 -20°C° 0.1 mm 4 m/s 750 mmHg 89%
    19:00 -20°C° 0.1 mm 4 m/s 750 mmHg 89%
    20:00 -20°C° 0.1 mm 4 m/s 750 mmHg 89%
    21:00 -20°C° 0.2 mm 4 m/s 749 mmHg 90%
    22:00 -20°C° 0.2 mm 4 m/s 749 mmHg 91%
    23:00 -20°C° 0.2 mm 4 m/s 749 mmHg 92%
    Arată mai mult